ボアッティーニ彗星

C/2010 U3 ( Boattini )

English version
Home page
Updated on November 25, 2018

---------------------------------------------------------------------

・ プロフィール

発見日 2010年10月31日
発見光度 19.4等
発見者 A. Boattini (Mt. Lemmon)

・ 写真集

・ 軌道要素

Epoch 2019 Mar. 18.0 TT = JDT 2458560.5
T 2019 Feb. 26.63187 TT                                 MPCW
q   8.4454764            (2000.0)            P               Q
z  +0.0001980      Peri.   88.08692     -0.36205528     -0.74305302
 +/-0.0000004      Node    43.06729     +0.07255249     -0.62443485
e   0.9983281      Incl.   55.51174     +0.92932885     -0.24073498
From 1282 observations 2009 Sept. 16-2018 Mar. 25, mean residual 0".6.

・ 星図

・ 光度変化

        m1 = 7.5 + 5 logΔ + 5.0 log r

---------------------------------------------------------------------

軌道要素はM.P.E.C. 2018-F152に掲載されたものです。
星図はステラナビゲータ Ver.8 (アストロアーツ) で作成したものです。
光度グラフはComet for Windowsで作成したものです。

---------------------------------------------------------------------

Copyright(C) Seiichi Yoshida (comet@aerith.net). All rights reserved.